This is the latest recevied weather packets stored in our database for station/object KC1TWD. If no packets are shown the sender has not sent any weather packets the latest 10 day(s).
| Time | Temp. | Humidity | Pressure | Rain* | Wind** | Luminosity | Snow |
|---|---|---|---|---|---|---|---|
| 1777751981 | 8.89° C | 97% | 1010.3 hPa | 0 mm | - | - | - |
| 1777751678 | 8.89° C | 97% | 1010.3 hPa | 1.27 mm | - | - | - |
| 1777751374 | 8.89° C | 98% | 1010.4 hPa | 3.05 mm | - | - | - |
| 1777751071 | 8.89° C | 98% | 1010.5 hPa | 1.78 mm | - | - | - |
| 1777750767 | 8.89° C | 97% | 1010.5 hPa | 0 mm | - | - | - |
| 1777750464 | 8.89° C | 96% | 1010.5 hPa | 3.05 mm | - | - | - |
| 1777750159 | 8.89° C | 96% | 1010.4 hPa | 9.65 mm | - | - | - |
| 1777749857 | 8.89° C | 94% | 1010.6 hPa | 13.21 mm | - | - | - |
| 1777749554 | 9.44° C | 91% | 1010.7 hPa | 4.32 mm | - | - | - |
| 1777749252 | 10° C | 88% | 1010.5 hPa | 0 mm | - | - | - |
| 1777748949 | 10° C | 88% | 1010.4 hPa | 0 mm | - | - | - |
| 1777748646 | 10° C | 87% | 1010.3 hPa | 0 mm | - | - | - |
| 1777748342 | 10.56° C | 87% | 1010.4 hPa | 0 mm | - | - | - |
| 1777748037 | 10.56° C | 85% | 1010.5 hPa | 0 mm | - | - | - |
| 1777747735 | 10.56° C | 84% | 1010.7 hPa | 0 mm | - | - | - |
| 1777747430 | 10.56° C | 83% | 1010.6 hPa | 0 mm | - | - | - |
| 1777747127 | 10.56° C | 86% | 1010.7 hPa | 0 mm | - | - | - |
| 1777746823 | 10° C | 90% | 1010.7 hPa | 0 mm | - | - | - |
| 1777746518 | 10° C | 90% | 1010.8 hPa | 0 mm | - | - | - |
| 1777746214 | 10° C | 90% | 1011 hPa | 0 mm | - | - | - |
| 1777745911 | 10° C | 92% | 1010.9 hPa | 0 mm | - | - | - |
| 1777745610 | 10° C | 93% | 1010.9 hPa | 0 mm | - | - | - |
| 1777745307 | 9.44° C | 92% | 1010.9 hPa | 0 mm | - | - | - |
| 1777745004 | 9.44° C | 92% | 1010.9 hPa | 0 mm | - | - | - |
| 1777744700 | 9.44° C | 94% | 1010.6 hPa | 0 mm | - | - | - |
* Rain latest hour (hover to see other rain measurements)
** Current wind speed in m/s (hover to see current wind gust speed)